User: anonymous   Login
Location: Fontevrault
(47.1823°N, 0.0493°E)
Time: 16:57:54
(UTC+00:00)
Language:

Cosmos 1844 Rocket - Orbit

View from above orbital plane
View from above orbital plane
View from above satellite
View from above satellite

Ground track
Ground track

The orbit data is extracted from the following two-line orbital elements,

1 17974U 87041B   21268.65883921  .00000135  00000-0  90621-4 0  9990
2 17974  71.0075 219.8610 0013640 178.4937 354.1422 14.17275128777673
Epoch (UTC): 25 September 2021 15:48:43
Eccentricity: 0.0013640
inclination: 71.0075°
perigee height: 825 km
apogee height: 844 km
right ascension of ascending node: 219.8610°
argument of perigee: 178.4937°
revolutions per day: 14.17275128
mean anomaly at epoch: 354.1422°
orbit number at epoch: 77767

The dashed part of the orbit path shows where the satellite is in the earth's shadow,  

DLR